This is the latest recevied weather packets stored in our database for station/object OK3MS-5. If no packets are shown the sender has not sent any weather packets the latest 10 day(s).
| Time | Temp. | Humidity | Pressure | Rain* | Wind** | Luminosity | Snow |
|---|---|---|---|---|---|---|---|
| 1777533005 | 5° C | 45% | 1031.7 hPa | 0 mm | - | 352 W/m² | - |
| 1777532704 | 5° C | 47% | 1031.8 hPa | 0 mm | - | 337 W/m² | - |
| 1777532410 | 4.44° C | 47% | 1031.8 hPa | 0 mm | - | 322 W/m² | - |
| 1777532104 | 5° C | 47% | 1031.7 hPa | 0 mm | - | 310 W/m² | - |
| 1777531804 | 5° C | 50% | 1031.7 hPa | 0 mm | - | 294 W/m² | - |
| 1777531509 | 4.44° C | 50% | 1031.8 hPa | 0 mm | - | 279 W/m² | - |
| 1777531202 | 3.89° C | 51% | 1032 hPa | 0 mm | - | 263 W/m² | - |
| 1777530911 | 3.33° C | 54% | 1032 hPa | 0 mm | - | 250 W/m² | - |
| 1777530605 | 4.44° C | 53% | 1032 hPa | 0 mm | - | 236 W/m² | - |
| 1777530306 | 3.89° C | 53% | 1031.9 hPa | 0 mm | - | 220 W/m² | - |
| 1777530004 | 3.33° C | 54% | 1032.1 hPa | 0 mm | - | 120 W/m² | - |
| 1777529710 | 2.78° C | 55% | 1032.1 hPa | 0 mm | - | 51 W/m² | - |
| 1777529402 | 2.78° C | 57% | 1032.2 hPa | 0 mm | - | 50 W/m² | - |
| 1777529108 | 3.33° C | 56% | 1032.1 hPa | 0 mm | - | 49 W/m² | - |
| 1777528804 | 2.78° C | 57% | 1032.1 hPa | 0 mm | - | 48 W/m² | - |
| 1777528504 | 2.22° C | 58% | 1032.2 hPa | 0 mm | - | 47 W/m² | - |
| 1777528203 | 1.67° C | 61% | 1032.2 hPa | 0 mm | - | 46 W/m² | - |
| 1777527909 | 1.11° C | 62% | 1032.3 hPa | 0 mm | - | 45 W/m² | - |
| 1777527603 | 1.67° C | 62% | 1032.2 hPa | 0 mm | - | 44 W/m² | - |
| 1777527310 | 1.11° C | 63% | 1032.2 hPa | 0 mm | - | 43 W/m² | - |
| 1777527002 | 0.56° C | 66% | 1032.5 hPa | 0 mm | - | 43 W/m² | - |
| 1777526704 | 0° C | 70% | 1032.6 hPa | 0 mm | - | 70 W/m² | - |
| 1777526404 | 0° C | 71% | 1032.8 hPa | 0 mm | - | 63 W/m² | - |
| 1777526102 | 0° C | 71% | 1032.6 hPa | 0 mm | - | 38 W/m² | - |
| 1777525810 | 0° C | 69% | 1032.6 hPa | 0 mm | - | 34 W/m² | - |
* Rain latest hour (hover to see other rain measurements)
** Current wind speed in m/s (hover to see current wind gust speed)